datetime,ave dewpoint
2016-12-28,21.99
2016-12-29,19.24
2016-12-30,21.67
2016-12-31,14.51
2017-01-01,18.06
2017-01-02,13.18
2017-01-03,23.28
2017-01-04,8.81
2017-01-05,-14.96
2017-01-06,-14.23
2017-01-07,24.0
2017-01-08,36.45
2017-01-09,28.42
2017-01-10,32.05
2017-01-11,26.97
2017-01-12,23.61
2017-01-13,17.6
2017-01-14,19.45
2017-01-15,18.89
2017-01-16,20.95
2017-01-17,22.35
2017-01-18,30.09
2017-01-19,29.12
2017-01-20,29.58
2017-01-21,27.76
2017-01-22,28.1
2017-01-23,21.4
2017-01-24,21.15
2017-01-25,23.48
2017-01-26,26.37
2017-01-27,21.0
2017-01-28,20.46
2017-01-29,20.76
2017-01-30,21.72
2017-01-31,26.43
2017-02-01,26.83
2017-02-02,32.42
2017-02-03,37.03
2017-02-04,34.59
2017-02-05,32.26
2017-02-06,29.47
2017-02-07,33.41
2017-02-08,41.13
2017-02-09,41.08
2017-02-10,30.14
2017-02-11,23.55
2017-02-12,23.23
2017-02-13,26.78
2017-02-14,23.3
2017-02-15,30.74
2017-02-16,33.57
2017-02-17,33.03
2017-02-18,33.89
2017-02-19,30.11
2017-02-20,34.59
2017-02-21,28.44
2017-02-22,25.03
2017-02-23,19.81
2017-02-24,17.24
2017-02-25,21.76
2017-02-26,18.12
2017-02-27,19.31
2017-02-28,22.26
2017-03-01,21.46
2017-03-02,22.66
2017-03-03,27.44
2017-03-04,29.71
2017-03-05,18.21
2017-03-06,21.67
2017-03-07,29.48
2017-03-08,35.69
2017-03-09,41.16
2017-03-10,33.77
2017-03-11,32.7
2017-03-12,29.03
2017-03-13,35.02
2017-03-14,33.46
2017-03-15,39.95
2017-03-16,33.88
2017-03-17,32.84
2017-03-18,40.65
2017-03-19,40.59
2017-03-20,38.73
2017-03-21,38.6
2017-03-22,35.14
2017-03-23,29.24
2017-03-24,30.78
2017-03-25,29.47
2017-03-26,32.54
2017-03-27,29.27
2017-03-28,30.51
2017-03-29,39.48
2017-03-30,29.91
2017-03-31,26.52
2017-04-01,35.17
2017-04-02,30.52
2017-04-03,21.89
2017-04-04,29.68
2017-04-05,32.51
2017-04-06,35.47
2017-04-07,33.06
2017-04-08,28.07
2017-04-09,27.28
2017-04-10,28.82
2017-04-11,34.59
2017-04-12,37.89
2017-04-13,31.06
2017-04-14,26.64
2017-04-15,27.19
2017-04-16,31.26
2017-04-17,33.0
2017-04-18,34.87
2017-04-19,31.82
2017-04-20,31.36
2017-04-21,31.02
2017-04-22,35.27
2017-04-23,33.4
2017-04-24,34.09
2017-04-25,34.51
2017-04-26,40.54
2017-04-27,27.77
2017-04-28,24.18
2017-04-29,29.89
2017-04-30,33.76
2017-05-01,36.1
2017-05-02,45.38
2017-05-03,46.31
2017-05-04,45.44
2017-05-05,41.29
2017-05-06,32.25
2017-05-07,26.92
2017-05-08,27.55
2017-05-09,35.76
2017-05-10,39.39
2017-05-11,40.03
2017-05-12,30.38
2017-05-13,29.81
2017-05-14,29.89
2017-05-15,32.64
2017-05-16,37.86
2017-05-17,31.09
2017-05-18,33.9
2017-05-19,38.6
2017-05-20,39.83
2017-05-21,41.39
2017-05-22,44.79
2017-05-23,47.42
2017-05-24,42.88
2017-05-25,35.47
2017-05-26,37.47
2017-05-27,40.44
2017-05-28,40.7
2017-05-29,46.43
2017-05-30,44.18
2017-05-31,49.27
2017-06-01,48.15
2017-06-02,46.98
2017-06-03,49.46
2017-06-04,41.6
2017-06-05,40.81
2017-06-06,44.12
2017-06-07,43.23
2017-06-08,40.21
2017-06-09,36.79
2017-06-10,35.88
2017-06-11,37.98
2017-06-12,39.71
2017-06-13,37.8
2017-06-14,40.25
2017-06-15,47.32
2017-06-16,51.88
2017-06-17,50.25
2017-06-18,55.98
2017-06-19,57.57
2017-06-20,57.02
2017-06-21,50.1
2017-06-22,41.45
2017-06-23,45.76
2017-06-24,52.14
2017-06-25,53.15
2017-06-26,46.41
2017-06-27,43.32
2017-06-28,41.45
2017-06-29,40.55
2017-06-30,46.91
2017-07-01,48.5
2017-07-02,49.95
2017-07-03,52.71
2017-07-04,46.74
2017-07-05,43.03
2017-07-06,45.22
2017-07-07,45.99
2017-07-08,48.7
2017-07-09,51.1
2017-07-10,46.23
2017-07-11,50.58
2017-07-12,51.54
2017-07-13,50.09
2017-07-14,49.53
2017-07-15,50.42
2017-07-16,45.79
2017-07-17,45.02
2017-07-18,43.83
2017-07-19,45.45
2017-07-20,46.43
2017-07-21,46.3
2017-07-22,45.96
2017-07-23,50.95
2017-07-24,55.21
2017-07-25,55.2
2017-07-26,52.17
2017-07-27,54.17
2017-07-28,53.17
2017-07-29,53.47
2017-07-30,50.59
2017-07-31,52.57
2017-08-01,54.12
2017-08-02,54.64
2017-08-03,53.51
2017-08-04,48.28
2017-08-05,51.39
2017-08-06,52.13
2017-08-07,53.91
2017-08-08,53.33
2017-08-09,52.43
2017-08-10,50.79
2017-08-11,51.04
2017-08-12,50.6
2017-08-13,47.57
2017-08-14,49.42
2017-08-15,42.84
2017-08-16,42.45
2017-08-17,45.22
2017-08-18,45.68
2017-08-19,43.23
2017-08-20,44.03
2017-08-21,48.09
2017-08-22,51.93
2017-08-23,54.15
2017-08-24,50.57
2017-08-25,51.24
2017-08-26,46.58
2017-08-27,47.14
2017-08-28,47.43
2017-08-29,43.76
2017-08-30,44.62
2017-08-31,41.65
2017-09-01,46.12
2017-09-02,48.68
2017-09-03,51.07
2017-09-04,48.46
2017-09-05,48.53
2017-09-06,57.07
2017-09-07,54.18
2017-09-08,51.86
2017-09-09,51.11
2017-09-10,49.74
2017-09-11,47.95
2017-09-12,55.04
2017-09-13,48.35
2017-09-14,33.25
2017-09-15,31.53
2017-09-16,34.3
2017-09-17,38.15
2017-09-18,41.47
2017-09-19,35.7
2017-09-20,38.82
2017-09-21,32.66
2017-09-22,30.21
2017-09-23,31.04
2017-09-24,31.47
2017-09-25,36.34
2017-09-26,39.22
2017-09-27,35.88
2017-09-28,35.57
2017-09-29,40.89
2017-09-30,37.71
2017-10-01,32.2
2017-10-02,27.56
2017-10-03,29.07
2017-10-04,25.1
2017-10-05,25.23
2017-10-06,27.51
2017-10-07,31.39
2017-10-08,27.95
2017-10-09,17.43
2017-10-10,24.25
2017-10-11,28.07
2017-10-12,26.37
2017-10-13,31.81
2017-10-14,21.29
2017-10-15,20.87
2017-10-16,23.76
2017-10-17,28.23
2017-10-18,26.16
2017-10-19,31.29
2017-10-20,32.91
2017-10-21,35.68
2017-10-22,40.99
2017-10-23,42.47
2017-10-24,38.49
2017-10-25,36.29
2017-10-26,37.74
2017-10-27,37.75
2017-10-28,37.27
2017-10-29,35.51
2017-10-30,36.55
2017-10-31,26.06
2017-11-01,31.37
2017-11-02,35.55
2017-11-03,35.11
2017-11-04,31.17
2017-11-05,30.18
2017-11-06,27.16
2017-11-07,25.6
2017-11-08,34.62
2017-11-09,37.51
2017-11-10,36.45
2017-11-11,32.18
2017-11-12,34.1
2017-11-13,36.25
2017-11-14,28.37
2017-11-15,32.37
2017-11-16,34.03
2017-11-17,26.01
2017-11-18,21.24
2017-11-19,25.08
2017-11-20,39.48
2017-11-21,44.04
2017-11-22,40.81
2017-11-23,43.36
2017-11-24,37.94
2017-11-25,36.7
2017-11-26,40.12
2017-11-27,32.32
2017-11-28,29.39
2017-11-29,26.2
2017-11-30,26.05
2017-12-01,26.74
2017-12-02,29.07
2017-12-03,26.24
2017-12-04,20.11
2017-12-05,19.0
2017-12-06,19.08
2017-12-07,18.06
2017-12-08,19.37
2017-12-09,19.37
2017-12-10,17.86
2017-12-11,15.26
2017-12-12,16.5
2017-12-13,19.23
2017-12-14,19.38
2017-12-15,24.75
2017-12-16,19.13
2017-12-17,16.95
2017-12-18,22.17
2017-12-19,25.37
2017-12-20,21.92
2017-12-21,12.45
2017-12-22,21.29
2017-12-23,24.19
2017-12-24,28.48
2017-12-25,30.43
2017-12-26,25.39
2017-12-27,27.18
2017-12-28,23.84
2017-12-29,23.23
2017-12-30,32.42
2017-12-31,27.45
2018-01-01,25.14
2018-01-02,25.53
2018-01-03,30.34
2018-01-04,39.29
2018-01-05,41.51
2018-01-06,31.32
2018-01-07,27.92
2018-01-08,35.45
2018-01-09,37.72
2018-01-10,31.77
2018-01-11,32.83
2018-01-12,29.83
2018-01-13,28.82
2018-01-14,31.37
2018-01-15,31.28
2018-01-16,33.59
2018-01-17,37.12
2018-01-18,35.69
2018-01-19,26.56
2018-01-20,24.38
2018-01-21,24.75
2018-01-22,28.33
2018-01-23,28.62
2018-01-24,29.64
2018-01-25,22.16
2018-01-26,22.45
2018-01-27,30.3
2018-01-28,30.51
2018-01-29,29.5
2018-01-30,29.93
2018-01-31,28.8
2018-02-01,32.32
2018-02-02,34.25
2018-02-03,35.35
2018-02-04,34.54
2018-02-05,32.29
2018-02-06,24.73
2018-02-07,25.43
2018-02-08,28.84
2018-02-09,24.26
2018-02-10,16.47
2018-02-11,19.59
2018-02-12,18.34
2018-02-13,14.66
2018-02-14,21.14
2018-02-15,15.96
2018-02-16,21.63
2018-02-17,27.25
2018-02-18,20.47
2018-02-19,15.28
2018-02-20,11.33
2018-02-21,16.87
2018-02-22,17.33
2018-02-23,9.0
2018-02-24,21.03
2018-02-25,20.77
2018-02-26,19.79
2018-02-27,10.84
2018-02-28,18.49
2018-03-01,29.55
2018-03-02,16.87
2018-03-03,19.76
2018-03-04,18.13
2018-03-05,18.08
2018-03-06,23.49
2018-03-07,25.76
2018-03-08,32.19
2018-03-09,35.16
2018-03-10,32.29
2018-03-11,30.42
2018-03-12,31.19
2018-03-13,38.74
2018-03-14,30.38
2018-03-15,26.75
2018-03-16,26.97
2018-03-17,25.27
2018-03-18,24.44
2018-03-19,22.04
2018-03-20,29.47
2018-03-21,38.07
2018-03-22,33.51
2018-03-23,25.86
2018-03-24,21.29
2018-03-25,22.66
2018-03-26,24.11
2018-03-27,30.78
2018-03-28,33.35
2018-03-29,29.89
2018-03-30,25.3
2018-03-31,31.6
2018-04-01,34.04
2018-04-02,20.48
2018-04-03,20.21
2018-04-04,33.11
2018-04-05,37.29
2018-04-06,42.31
2018-04-07,38.36
2018-04-08,30.15
2018-04-09,30.58
2018-04-10,36.65
2018-04-11,31.64
2018-04-12,25.06
2018-04-13,30.24
2018-04-14,33.27
2018-04-15,33.76
2018-04-16,27.36
2018-04-17,24.02
2018-04-18,28.09
2018-04-19,32.06
2018-04-20,31.46
2018-04-21,32.17
2018-04-22,30.16
2018-04-23,23.81
2018-04-24,26.33
2018-04-25,32.9
2018-04-26,35.13
2018-04-27,34.01
2018-04-28,35.74
2018-04-29,35.09
2018-04-30,34.53
2018-05-01,31.75
2018-05-02,31.85
2018-05-03,36.41
2018-05-04,40.03
2018-05-05,39.73
2018-05-06,37.5
2018-05-07,41.57
2018-05-08,45.78
2018-05-09,41.95
2018-05-10,36.16
2018-05-11,31.41
2018-05-12,37.38
2018-05-13,37.33
2018-05-14,36.68
2018-05-15,40.94
2018-05-16,46.23
2018-05-17,45.58
2018-05-18,37.97
2018-05-19,40.25
2018-05-20,45.41
2018-05-21,42.97
2018-05-22,43.6
2018-05-23,51.11
2018-05-24,47.36
2018-05-25,49.25
2018-05-26,42.89
2018-05-27,42.96
2018-05-28,46.92
2018-05-29,43.66
2018-05-30,41.89
2018-05-31,37.77
2018-06-01,35.17
2018-06-02,39.69
2018-06-03,46.98
2018-06-04,42.23
2018-06-05,38.9
2018-06-06,40.79
2018-06-07,43.76
2018-06-08,41.58
2018-06-09,39.22
2018-06-10,34.3
2018-06-11,40.48
2018-06-12,41.47
2018-06-13,45.94
2018-06-14,40.89
2018-06-15,38.36
2018-06-16,36.86
2018-06-17,44.65
2018-06-18,47.07
2018-06-19,48.04
2018-06-20,47.1
2018-06-21,46.69
2018-06-22,42.15
2018-06-23,41.85
2018-06-24,46.36
2018-06-25,43.77
2018-06-26,42.22
2018-06-27,45.72
2018-06-28,42.4
2018-06-29,40.95
2018-06-30,44.08
2018-07-01,45.67
2018-07-02,39.0
2018-07-03,36.12
2018-07-04,40.59
2018-07-05,37.81
2018-07-06,41.52
2018-07-07,43.75
2018-07-08,45.78
2018-07-09,44.26
2018-07-10,45.58
2018-07-11,48.34
2018-07-12,49.62
2018-07-13,54.89
2018-07-14,55.29
2018-07-15,54.8
2018-07-16,53.24
2018-07-17,52.71
2018-07-18,48.05
2018-07-19,47.82
2018-07-20,50.06
2018-07-21,45.8
2018-07-22,50.29
2018-07-23,54.03
2018-07-24,57.01
2018-07-25,55.62
2018-07-26,50.64
2018-07-27,46.86
2018-07-28,47.36
2018-07-29,49.39
2018-07-30,52.83
2018-07-31,53.92
2018-08-01,49.14
2018-08-02,46.49
2018-08-03,41.02
2018-08-04,42.45
2018-08-05,45.06
2018-08-06,50.09
2018-08-07,52.7
2018-08-08,51.24
2018-08-09,53.24
2018-08-10,49.53
2018-08-11,48.7
2018-08-12,47.56
2018-08-13,47.18
2018-08-14,47.23
2018-08-15,48.8
2018-08-16,43.94
2018-08-17,47.8
2018-08-18,47.86
2018-08-19,44.32
2018-08-20,46.31
2018-08-21,45.75
2018-08-22,45.53
2018-08-23,45.24
2018-08-24,42.44
2018-08-25,39.58
2018-08-26,38.29
2018-08-27,45.14
2018-08-28,41.9
2018-08-29,42.79
2018-08-30,45.73
2018-08-31,41.72
2018-09-01,44.16
2018-09-02,43.87
2018-09-03,43.41
2018-09-04,43.27
2018-09-05,39.08
2018-09-06,39.76
2018-09-07,43.82
2018-09-08,40.99
2018-09-09,39.76
2018-09-10,38.77
2018-09-11,37.33
2018-09-12,34.83
2018-09-13,37.95
2018-09-14,32.74
2018-09-15,33.33
2018-09-16,35.11
2018-09-17,32.95
2018-09-18,35.42
2018-09-19,32.31
2018-09-20,30.15
2018-09-21,31.4
2018-09-22,36.98
2018-09-23,34.6
2018-09-24,28.25
2018-09-25,27.69
2018-09-26,27.45
2018-09-27,29.82
2018-09-28,31.78
2018-09-29,35.08
2018-09-30,43.25
2018-10-01,44.12
2018-10-02,48.57
2018-10-03,48.83
2018-10-04,43.25
2018-10-05,36.18
2018-10-06,42.06
2018-10-07,34.05
2018-10-08,44.01
2018-10-09,38.68
2018-10-10,33.24
2018-10-11,29.43
2018-10-12,28.15
2018-10-13,28.65
2018-10-14,16.52
2018-10-15,19.2
2018-10-16,25.22
2018-10-17,28.12
2018-10-18,29.83
2018-10-19,29.84
2018-10-20,27.43
2018-10-21,25.84
2018-10-22,28.49
2018-10-23,27.54
2018-10-24,30.86
2018-10-25,34.03
2018-10-26,36.67
2018-10-27,38.7
2018-10-28,39.9
2018-10-29,32.53
2018-10-30,26.84
2018-10-31,35.59
2018-11-01,42.0
2018-11-02,37.2
2018-11-03,31.77
2018-11-04,32.11
2018-11-05,28.26
2018-11-06,22.7
2018-11-07,18.91
2018-11-08,12.38
2018-11-09,11.08
2018-11-10,13.7
2018-11-11,10.76
2018-11-12,10.99
2018-11-13,10.84
2018-11-14,14.43
2018-11-15,17.83
2018-11-16,21.93
2018-11-17,26.17
2018-11-18,23.79
2018-11-19,17.98
2018-11-20,16.74
2018-11-21,29.08
2018-11-22,31.88
2018-11-23,35.99
2018-11-24,30.07
2018-11-25,29.36
2018-11-26,30.72
2018-11-27,37.3
2018-11-28,33.4
2018-11-29,36.32
2018-11-30,28.72
2018-12-01,28.72
2018-12-02,21.7
2018-12-03,16.97
2018-12-04,22.81
2018-12-05,24.85
2018-12-06,19.06
2018-12-07,19.71
2018-12-08,28.53
2018-12-09,27.56
2018-12-10,30.26
2018-12-11,29.16
2018-12-12,27.38
2018-12-13,24.36
2018-12-14,26.9
2018-12-15,32.36
2018-12-16,39.25
2018-12-17,33.31
2018-12-18,34.63
2018-12-19,32.92
2018-12-20,32.26
2018-12-21,26.72
2018-12-22,22.62
2018-12-23,32.79
2018-12-24,33.89
2018-12-25,29.6
2018-12-26,24.34
2018-12-27,23.75
2018-12-28,20.86
2018-12-29,23.05
2018-12-30,28.96
2018-12-31,17.2
2019-01-01,13.06
2019-01-02,16.38
2019-01-03,23.51
2019-01-04,22.26
2019-01-05,25.52
2019-01-06,27.79
2019-01-07,25.72
2019-01-08,34.05
2019-01-09,36.33
2019-01-10,31.84
2019-01-11,30.07
2019-01-12,26.0
2019-01-13,22.09
2019-01-14,19.02
2019-01-15,29.68
2019-01-16,34.46
2019-01-17,31.81
2019-01-18,31.47
2019-01-19,37.78
2019-01-20,36.03
2019-01-21,27.08
2019-01-22,24.07
2019-01-23,30.84
2019-01-24,27.76
2019-01-25,26.22
2019-01-26,26.84
2019-01-27,28.99
2019-01-28,29.29
2019-01-29,30.42
2019-01-30,26.98
2019-01-31,27.35
2019-02-01,37.85
2019-02-02,35.64
2019-02-03,30.71
2019-02-04,25.57
2019-02-05,19.1
2019-02-06,17.86
2019-02-07,11.9
2019-02-08,22.18
2019-02-09,20.2
2019-02-10,13.35
2019-02-11,20.51
2019-02-12,24.06
2019-02-13,30.79
2019-02-14,33.64
2019-02-15,22.2
2019-02-16,23.01
2019-02-17,19.64
2019-02-18,17.55
2019-02-19,19.22
2019-02-20,23.07
2019-02-21,15.73
2019-02-22,12.68
2019-02-23,21.82
2019-02-24,25.73
2019-02-25,29.28
2019-02-26,32.52
2019-02-27,32.67
2019-02-28,25.05
2019-03-01,24.85
2019-03-02,31.47
2019-03-03,30.85
2019-03-04,28.26
2019-03-05,31.38
2019-03-06,36.28
2019-03-07,27.09
2019-03-08,19.57
2019-03-09,27.2
2019-03-10,29.11
2019-03-11,23.1
2019-03-12,26.35
2019-03-13,21.83
2019-03-14,18.77
2019-03-15,19.12
2019-03-16,21.71
2019-03-17,23.34
2019-03-18,25.07
2019-03-19,27.55
2019-03-20,32.35
2019-03-21,29.19
2019-03-22,29.64
2019-03-23,33.94
2019-03-24,29.71
2019-03-25,31.27
2019-03-26,33.05
2019-03-27,34.64
2019-03-28,31.29
2019-03-29,29.53
2019-03-30,26.12
2019-03-31,25.86
2019-04-01,40.74
2019-04-02,42.12
2019-04-03,38.74
2019-04-04,36.48
2019-04-05,34.58
2019-04-06,35.65
2019-04-07,41.2
2019-04-08,45.43
2019-04-09,31.97
2019-04-10,30.94
2019-04-11,32.69
2019-04-12,33.01
2019-04-13,32.79
2019-04-14,36.05
2019-04-15,33.8
2019-04-16,32.35
2019-04-17,36.55
2019-04-18,40.51
2019-04-19,40.56
2019-04-20,43.27
2019-04-21,35.81
2019-04-22,36.61
2019-04-23,43.76
2019-04-24,43.58
2019-04-25,39.86
2019-04-26,32.94
2019-04-27,31.89
2019-04-28,22.54
2019-04-29,22.42
2019-04-30,18.73
2019-05-01,19.23
2019-05-02,22.2
2019-05-03,26.6
2019-05-04,31.16
2019-05-05,34.94
2019-05-06,35.94
2019-05-07,36.06
2019-05-08,36.17
2019-05-09,31.43
2019-05-10,29.49
2019-05-11,33.3
2019-05-12,39.2
2019-05-13,39.02
2019-05-14,39.7
2019-05-15,42.56
2019-05-16,36.58
2019-05-17,36.52
2019-05-18,37.44
2019-05-19,36.84
2019-05-20,33.86
2019-05-21,36.28
2019-05-22,40.83
2019-05-23,40.65
2019-05-24,39.49
2019-05-25,34.54
2019-05-26,40.12
2019-05-27,46.25
2019-05-28,46.31
2019-05-29,44.65
2019-05-30,43.33
2019-05-31,48.34
2019-06-01,50.58
2019-06-02,50.09
2019-06-03,45.19
2019-06-04,41.31
2019-06-05,42.93
2019-06-06,41.35
2019-06-07,29.35
2019-06-08,29.27
2019-06-09,29.45
2019-06-10,36.13
2019-06-11,45.42
2019-06-12,47.41
2019-06-13,46.98
2019-06-14,44.48
2019-06-15,42.19
2019-06-16,45.1
2019-06-17,44.68
2019-06-18,45.22
2019-06-19,39.94
2019-06-20,34.83
2019-06-21,33.93
2019-06-22,39.51
2019-06-23,39.9
2019-06-24,40.79
2019-06-25,42.85
2019-06-26,35.75
2019-06-27,38.4
2019-06-28,39.29
2019-06-29,41.75
2019-06-30,43.79
2019-07-01,45.52
2019-07-02,41.68
2019-07-03,41.98
2019-07-04,43.6
2019-07-05,47.4
2019-07-06,46.5
2019-07-07,42.51
2019-07-08,44.69
2019-07-09,47.79
2019-07-10,47.96
2019-07-11,53.38
2019-07-12,54.76
2019-07-13,54.71
2019-07-14,52.07
2019-07-15,51.87
2019-07-16,50.67
2019-07-17,48.54
2019-07-18,51.21
2019-07-19,47.06
2019-07-20,49.24
2019-07-21,47.56
2019-07-22,48.26
2019-07-23,45.97
2019-07-24,49.44
2019-07-25,47.87
2019-07-26,50.15
2019-07-27,49.41
2019-07-28,50.5
2019-07-29,51.95
2019-07-30,50.33
2019-07-31,46.46
2019-08-01,45.46
2019-08-02,47.36
2019-08-03,49.48
2019-08-04,51.41
2019-08-05,48.68
2019-08-06,47.27
2019-08-07,40.19
2019-08-08,40.11
2019-08-09,42.12
2019-08-10,48.18
2019-08-11,45.56
2019-08-12,45.94
2019-08-13,44.96
2019-08-14,48.76
2019-08-15,48.93
2019-08-16,44.85
2019-08-17,42.58
2019-08-18,43.71
2019-08-19,40.19
2019-08-20,42.37
2019-08-21,50.27
2019-08-22,49.31
2019-08-23,44.26
2019-08-24,47.91
2019-08-25,45.22
2019-08-26,45.82
2019-08-27,45.46
2019-08-28,52.21
2019-08-29,52.26
2019-08-30,49.64
2019-08-31,47.54
2019-09-01,44.22
2019-09-02,41.46
2019-09-03,41.04
2019-09-04,41.4
2019-09-05,50.92
2019-09-06,42.76
2019-09-07,39.95
2019-09-08,42.38
2019-09-09,40.9
2019-09-10,41.02
2019-09-11,37.79
2019-09-12,37.67
2019-09-13,40.25
2019-09-14,38.77
2019-09-15,33.43
2019-09-16,41.41
2019-09-17,38.2
2019-09-18,44.98
2019-09-19,42.91
2019-09-20,41.57
2019-09-21,39.97
2019-09-22,43.78
2019-09-23,42.24
2019-09-24,47.97
2019-09-25,45.0
2019-09-26,38.87
2019-09-27,39.36
2019-09-28,31.43
2019-09-29,29.23
2019-09-30,34.21
2019-10-01,28.16
2019-10-02,28.06
2019-10-03,34.25
2019-10-04,30.23
2019-10-05,28.97
2019-10-06,28.26
2019-10-07,30.42
2019-10-08,35.21
2019-10-09,19.06
2019-10-10,12.78
2019-10-11,14.81
2019-10-12,21.38
2019-10-13,24.98
2019-10-14,27.3
2019-10-15,24.67
2019-10-16,23.3
2019-10-17,34.53
2019-10-18,35.45
2019-10-19,35.79
2019-10-20,34.21
2019-10-21,35.42
2019-10-22,38.55
2019-10-23,29.55
2019-10-24,26.81
2019-10-25,28.86
2019-10-26,26.27
2019-10-27,14.84
2019-10-28,11.44
2019-10-29,5.9
2019-10-30,2.33
2019-10-31,7.85
2019-11-01,17.68
2019-11-02,18.55
2019-11-03,23.83
2019-11-04,27.31
2019-11-05,28.2
2019-11-06,28.67
2019-11-07,23.71
2019-11-08,24.75
2019-11-09,25.22
2019-11-10,31.78
2019-11-11,33.41
2019-11-12,31.52
2019-11-13,29.39
2019-11-14,31.29
2019-11-15,36.25
2019-11-16,34.77
2019-11-17,32.08
2019-11-18,33.37
2019-11-19,34.87
2019-11-20,26.41
2019-11-21,21.52
2019-11-22,21.66
2019-11-23,22.87
2019-11-24,26.67
2019-11-25,23.02
2019-11-26,21.48
2019-11-27,22.82
2019-11-28,14.84
2019-11-29,16.38
2019-11-30,18.95
2019-12-01,31.4
2019-12-02,34.32
2019-12-03,31.64
2019-12-04,31.02
2019-12-05,33.78
2019-12-06,35.21
2019-12-07,36.41
2019-12-08,33.04
2019-12-09,30.12
2019-12-10,31.02
2019-12-11,34.54
2019-12-12,37.55
2019-12-13,36.52
2019-12-14,29.37
2019-12-15,26.93
2019-12-16,21.27
2019-12-17,18.62
2019-12-18,23.7
2019-12-19,32.35
2019-12-20,34.91
2019-12-21,27.05
2019-12-22,25.9
2019-12-23,21.42
2019-12-24,21.67
2019-12-25,28.12
2019-12-26,22.46
2019-12-27,21.05
2019-12-28,22.76
2019-12-29,27.14
2019-12-30,29.08
2019-12-31,28.58
2020-01-01,34.51
2020-01-02,28.5
2020-01-03,23.8
2020-01-04,30.15
2020-01-05,25.87
2020-01-06,25.72
2020-01-07,21.9
2020-01-08,28.31
2020-01-09,27.23
2020-01-10,23.94
2020-01-11,25.34
2020-01-12,24.8
2020-01-13,24.61
2020-01-14,23.08
2020-01-15,18.4
2020-01-16,28.09
2020-01-17,20.3
2020-01-18,25.72
2020-01-19,22.15
2020-01-20,27.74
2020-01-21,30.11
2020-01-22,32.56
2020-01-23,34.4
2020-01-24,35.08
2020-01-25,39.2
2020-01-26,36.64
2020-01-27,34.37
2020-01-28,32.39
2020-01-29,31.72
2020-01-30,37.51
2020-01-31,32.81
2020-02-01,29.91
2020-02-02,21.58
2020-02-03,14.54
2020-02-04,13.33
2020-02-05,28.81
2020-02-06,33.41
2020-02-07,22.93
2020-02-08,24.25
2020-02-09,18.88
2020-02-10,17.78
2020-02-11,21.82
2020-02-12,20.49
2020-02-13,18.64
2020-02-14,23.83
2020-02-15,25.3
2020-02-16,31.83
2020-02-17,17.89
2020-02-18,12.26
2020-02-19,14.31
2020-02-20,17.46
2020-02-21,18.49
2020-02-22,21.59
2020-02-23,24.46
2020-02-24,15.54
2020-02-25,18.54
2020-02-26,21.38
2020-02-27,21.19
2020-02-28,22.12
2020-02-29,21.25
2020-03-01,13.72
2020-03-02,22.93
2020-03-03,28.93
2020-03-04,25.54
2020-03-05,24.85
2020-03-06,31.15
2020-03-07,32.29
2020-03-08,30.49
2020-03-09,30.06
2020-03-10,26.58
2020-03-11,27.72
2020-03-12,19.79
2020-03-13,17.07
2020-03-14,21.35
2020-03-15,25.27
2020-03-16,28.02
2020-03-17,31.53
2020-03-18,28.53
2020-03-19,23.76
2020-03-20,24.76
2020-03-21,26.38
2020-03-22,26.6
2020-03-23,27.6
2020-03-24,28.11
2020-03-25,22.62
2020-03-26,16.22
2020-03-27,24.37
2020-03-28,28.5
2020-03-29,31.01
2020-03-30,31.06
2020-03-31,30.65
2020-04-01,18.61
2020-04-02,17.11
2020-04-03,19.1
2020-04-04,26.84
2020-04-05,30.96
2020-04-06,28.73
2020-04-07,30.83
2020-04-08,27.76
2020-04-09,29.22
2020-04-10,34.78
2020-04-11,35.75
2020-04-12,22.25
2020-04-13,16.33
2020-04-14,17.74
2020-04-15,30.97
2020-04-16,20.26
2020-04-17,13.07
2020-04-18,28.92
2020-04-19,29.69
2020-04-20,30.88
2020-04-21,36.01
2020-04-22,39.4
2020-04-23,34.38
2020-04-24,38.78
2020-04-25,40.26
2020-04-26,38.71
2020-04-27,36.01
2020-04-28,41.18
2020-04-29,44.01
2020-04-30,34.09
2020-05-01,28.38
2020-05-02,35.48
2020-05-03,26.69
2020-05-04,26.97
2020-05-05,30.36
2020-05-06,25.78
2020-05-07,21.53
2020-05-08,26.17
2020-05-09,28.78
2020-05-10,29.95
2020-05-11,30.34
2020-05-12,38.07
2020-05-13,37.15
2020-05-14,39.19
2020-05-15,34.9
2020-05-16,39.13
2020-05-17,40.09
2020-05-18,37.49
2020-05-19,37.13
2020-05-20,36.64
2020-05-21,36.47
2020-05-22,28.55
2020-05-23,29.87
2020-05-24,35.61
2020-05-25,45.64
2020-05-26,48.34
2020-05-27,50.65
2020-05-28,49.6
2020-05-29,46.99
2020-05-30,45.29
2020-05-31,43.31
2020-06-01,45.13
2020-06-02,45.07
2020-06-03,47.18
2020-06-04,41.58
2020-06-05,44.72
2020-06-06,37.39
2020-06-07,33.72
2020-06-08,32.44
2020-06-09,41.01
2020-06-10,45.59
2020-06-11,41.63
2020-06-12,41.01
2020-06-13,39.48
2020-06-14,39.66
2020-06-15,43.45
2020-06-16,36.37
2020-06-17,35.67
2020-06-18,39.53
2020-06-19,41.6
2020-06-20,48.51
2020-06-21,48.02
2020-06-22,48.96
2020-06-23,50.93
2020-06-24,50.72
2020-06-25,48.72
2020-06-26,47.37
2020-06-27,44.1
2020-06-28,37.86
2020-06-29,40.97
2020-06-30,40.34
2020-07-01,35.39
2020-07-02,35.9
2020-07-03,42.15
2020-07-04,41.03
2020-07-05,40.17
2020-07-06,43.64
2020-07-07,39.62
2020-07-08,39.74
2020-07-09,40.65
2020-07-10,48.18
2020-07-11,46.44
2020-07-12,44.97
2020-07-13,47.26
2020-07-14,42.02
2020-07-15,41.55
2020-07-16,48.03
2020-07-17,49.2
2020-07-18,50.17
2020-07-19,49.2
2020-07-20,48.49
2020-07-21,48.31
2020-07-22,50.81
2020-07-23,48.46
2020-07-24,44.65
2020-07-25,46.4
2020-07-26,42.82
2020-07-27,49.86
2020-07-28,51.83
2020-07-29,43.01
2020-07-30,38.61
2020-07-31,36.01
2020-08-01,45.13
2020-08-02,45.91
2020-08-03,47.14
2020-08-04,49.27
2020-08-05,50.67
2020-08-06,46.17
2020-08-07,37.6
2020-08-08,43.01
2020-08-09,46.57
2020-08-10,41.6
2020-08-11,45.97
2020-08-12,40.43
2020-08-13,41.89
2020-08-14,45.97
2020-08-15,46.39
2020-08-16,49.12
2020-08-17,51.8
2020-08-18,52.43
2020-08-19,43.11
2020-08-20,43.07
2020-08-21,46.61
2020-08-22,50.82
2020-08-23,47.23
2020-08-24,48.54
2020-08-25,48.15
2020-08-26,48.4
2020-08-27,46.25
2020-08-28,41.87
2020-08-29,42.71
2020-08-30,34.24
2020-08-31,40.68
2020-09-01,41.57
2020-09-02,44.51
2020-09-03,45.95
2020-09-04,45.33
2020-09-05,46.58
2020-09-06,43.25
2020-09-07,40.48
2020-09-08,23.23
2020-09-09,20.87
2020-09-10,25.15
2020-09-11,36.59
2020-09-12,38.47
2020-09-13,31.76
2020-09-14,28.98
2020-09-15,30.32
2020-09-16,31.95
2020-09-17,33.1
2020-09-18,39.51
2020-09-19,41.82
2020-09-20,36.33
2020-09-21,34.44
2020-09-22,41.07
2020-09-23,37.12
2020-09-24,43.46
2020-09-25,40.12
2020-09-26,45.39
2020-09-27,34.96
2020-09-28,28.73
2020-09-29,30.93
2020-09-30,36.07
2020-10-01,37.18
2020-10-02,38.75
2020-10-03,38.64
2020-10-04,39.13
2020-10-05,35.14
2020-10-06,31.37
2020-10-07,28.9
2020-10-08,26.08
2020-10-09,23.46
2020-10-10,41.13
2020-10-11,35.83
2020-10-12,40.98
2020-10-13,41.83
2020-10-14,35.66
2020-10-15,29.99
2020-10-16,29.24
2020-10-17,38.87
2020-10-18,37.59
2020-10-19,36.38
2020-10-20,37.88
2020-10-21,37.18
2020-10-22,22.12
2020-10-23,18.11
2020-10-24,33.25
2020-10-25,12.35
2020-10-26,6.22
2020-10-27,19.5
2020-10-28,22.5
2020-10-29,19.76
2020-10-30,22.15
2020-10-31,30.37
2020-11-01,27.78
2020-11-02,26.75
2020-11-03,24.04
2020-11-04,29.58
2020-11-05,33.75
2020-11-06,32.99
2020-11-07,28.25
2020-11-08,20.33
2020-11-09,17.98
2020-11-10,25.93
2020-11-11,23.51
2020-11-12,18.0
2020-11-13,29.2
2020-11-14,28.32